Wetbulb
65.36 66.31 65.94 65.86 69.11 71.42 70.89 71.03 71.83 71.99 71.76 71.32 71.13 71.31 71.88 72.12 72.45 72.54 72.62 72.61 72.82 71.96 70.76 70.74 70.55 70.52 70.81 71.27 71.13 70.88 70.82 70.27 69.63 68.99 68.55 68.15 67.20 66.68 66.20 65.34 64.76 63.22 65.86
66.55 65.13 64.20 65.42 67.78 66.51 68.09 70.70 70.43 70.71 72.02 71.95 71.36 71.09 71.45 71.42 71.82 71.88 72.32 72.59 72.20 71.81 71.29 70.34 70.13 70.24 70.17 70.38 70.19 70.04 69.99 69.12 68.64 68.15 67.61 66.71 66.15 65.58 65.25 64.31 63.89 62.26 63.87
66.57 67.74 66.86 67.23 65.66 65.57 66.05 67.64 69.92 70.51 70.32 71.25 71.42 71.37 71.34 71.33 71.32 71.48 71.68 72.15 71.82 71.43 71.06 70.32 70.09 69.76 69.72 69.80 69.53 69.93 69.21 68.18 67.41 66.56 65.55 61.87 62.01 64.94 64.17 63.34 63.32 63.42 63.34
66.65 66.39 65.62 65.67 65.77 64.88 65.78 67.80 68.45 69.65 70.18 69.21 70.51 71.21 71.18 71.41 71.17 70.90 71.15 71.77 71.51 71.04 71.02 70.04 69.40 69.61 69.28 69.36 68.94 68.97 68.92 67.51 66.34 65.33 61.59 60.63 61.41 63.97 63.42 63.12 62.78 62.51 62.46
62.05 65.27 64.38 65.17 65.38 65.69 66.42 65.52 68.39 68.67 68.83 68.82 70.03 69.63 70.50 70.94 71.45 70.56 71.17 71.38 71.49 71.40 70.89 69.82 69.32 69.28 68.81 68.90 68.70 68.96 67.40 65.63 64.53 61.68 59.02 58.82 59.18 62.26 63.12 62.11 61.55 61.51 61.32
56.46 59.64 65.03 67.05 67.14 64.90 64.31 63.96 65.10 67.80 68.55 68.47 68.42 68.68 69.10 69.51 69.87 70.51 70.68 71.25 70.92 70.63 70.24 69.65 69.25 67.93 67.66 67.28 66.90 67.81 65.84 63.53 61.02 57.75 57.93 60.12 58.08 62.73 62.25 62.67 60.86 61.15 61.73
52.42 54.22 60.47 65.76 67.25 65.99 64.32 64.79 66.09 67.24 66.96 66.29 65.88 65.52 66.58 67.26 67.04 67.82 69.27 69.99 70.78 70.04 69.52 69.19 67.98 66.71 66.20 63.68 66.69 66.78 63.61 61.61 57.56 56.92 56.68 56.66 57.74 62.85 63.37 61.31 61.22 61.23 61.06
50.45 52.24 54.23 58.06 64.05 64.85 66.39 66.96 66.71 66.50 66.13 65.58 65.11 64.56 64.41 64.24 64.34 64.59 64.82 68.97 69.71 69.16 68.62 67.51 66.45 65.80 63.27 64.86 65.90 63.57 61.76 60.44 57.70 56.59 56.36 57.46 62.86 62.59 63.02 60.94 61.50 61.09 61.45
48.95 49.73 50.73 53.83 60.55 62.51 62.95 64.06 65.07 65.19 65.10 65.07 64.38 63.01 62.52 62.46 62.42 62.24 62.02 63.24 69.17 68.41 66.99 65.14 63.95 63.25 61.69 63.12 63.43 61.75 60.65 59.25 55.50 56.03 57.99 57.83 62.68 63.90 62.15 61.17 61.59 61.33 60.53
46.39 47.32 48.09 50.02 53.60 58.06 62.70 61.19 61.92 63.00 63.60 63.40 62.62 62.24 61.46 61.12 60.38 60.10 59.33 60.59 67.70 65.96 64.15 62.68 61.14 60.99 60.23 62.43 61.43 60.33 59.43 58.21 54.51 55.82 56.66 57.10 63.80 63.07 61.64 61.13 61.37 60.83 58.93
44.48 44.90 46.22 47.77 49.68 52.95 58.28 61.71 61.05 61.32 61.45 61.59 61.30 60.29 59.76 60.11 59.03 58.84 58.87 58.96 57.72 62.36 62.02 60.66 59.54 58.95 60.48 60.79 59.51 58.52 57.09 55.10 55.55 55.63 55.03 61.75 62.95 61.93 61.50 60.71 60.74 60.09 58.41
41.17 43.11 45.00 45.95 47.69 50.51 54.25 60.89 60.44 60.82 60.69 60.30 60.59 60.16 59.86 58.87 58.24 56.73 56.56 57.10 56.10 54.53 56.27 57.52 56.42 55.18 53.73 53.61 55.41 55.76 54.21 54.55 54.93 55.83 56.10 62.63 62.19 61.16 61.72 61.35 60.64 59.06 58.32
40.42 43.17 44.70 45.51 47.04 49.05 51.88 55.63 59.70 58.75 59.85 59.73 59.37 59.14 58.34 57.56 55.70 53.90 52.75 52.63 51.95 51.01 49.86 49.17 48.33 48.30 50.18 52.23 52.66 52.52 52.90 53.30 53.51 54.61 57.47 61.43 61.25 60.18 61.87 60.95 60.27 58.76 58.94
40.75 42.61 44.02 45.13 46.68 49.99 52.12 54.19 60.21 57.73 57.37 56.87 59.03 58.30 57.31 55.35 53.59 51.76 50.69 50.75 50.55 50.10 48.42 47.95 48.26 49.08 49.95 51.51 51.68 51.48 51.33 51.26 51.79 53.03 54.95 58.58 61.25 60.66 61.53 61.13 60.31 59.60 58.98
40.15 41.85 43.13 44.73 46.00 49.08 50.69 54.87 59.48 57.90 57.38 56.55 58.32 57.76 55.95 53.74 51.95 51.44 50.59 50.38 49.88 49.78 48.48 48.24 49.08 48.93 49.22 49.94 50.47 50.54 50.09 50.27 50.19 51.21 53.41 55.78 60.40 61.21 61.22 60.93 60.65 59.65 58.64
40.04 40.65 42.61 44.27 46.06 47.59 50.74 54.89 57.67 59.87 59.15 58.16 57.95 55.96 53.67 53.04 51.44 50.68 49.82 49.55 49.45 49.63 49.47 49.53 48.50 47.65 47.00 48.20 47.50 47.72 47.40 47.53 47.02 47.45 50.33 51.41 55.66 58.78 59.61 60.02 60.28 60.00 58.88
38.51 39.80 41.29 44.10 45.75 46.32 49.89 53.80 58.32 59.72 58.91 58.15 57.21 55.20 52.98 51.40 50.32 49.05 49.72 49.30 49.51 49.68 49.58 49.15 47.95 46.99 46.08 45.91 44.70 44.37 44.10 43.19 42.90 42.67 44.93 46.03 47.53 53.44 55.90 56.70 57.07 58.39 58.79
36.18 37.43 40.27 43.31 44.39 45.53 48.62 52.42 58.22 59.21 59.03 58.14 57.05 54.98 53.71 51.75 49.99 49.03 48.81 48.18 49.33 49.55 49.76 48.91 47.51 45.69 44.55 44.12 42.70 41.28 40.65 41.42 40.88 40.61 40.86 42.45 44.08 45.39 50.61 52.68 53.11 54.56 57.16
34.20 35.35 37.65 41.17 42.91 44.81 47.45 52.03 56.78 56.34 56.44 57.82 56.85 55.27 54.41 51.45 50.48 49.53 48.69 48.53 49.22 49.40 49.38 49.04 47.08 45.73 43.43 42.53 41.91 41.12 40.59 39.14 38.90 40.08 38.98 39.45 40.37 40.66 41.48 48.37 48.58 50.02 53.24
32.87 34.19 36.16 39.25 41.30 44.20 46.52 50.53 55.66 54.92 54.33 54.31 54.79 55.21 54.48 53.42 51.34 49.42 48.65 48.11 48.20 48.16 47.97 48.24 46.53 45.67 43.78 42.60 41.89 40.47 40.09 39.62 37.70 37.30 37.62 39.08 38.32 38.56 38.81 39.56 39.64 41.61 49.84
32.21 32.83 34.26 35.91 38.67 42.78 44.24 47.12 50.20 52.34 51.63 51.66 51.77 52.68 53.20 53.67 51.99 50.04 49.16 48.45 48.24 47.30 47.00 47.26 45.72 43.95 42.81 42.77 41.46 40.60 40.31 39.62 38.43 36.92 37.08 36.95 37.28 37.42 37.73 38.07 38.25 38.19 39.53
29.12 30.82 32.93 34.32 36.42 40.23 42.26 45.75 49.09 51.58 51.26 50.82 50.86 50.85 51.14 51.38 51.35 49.76 49.07 48.17 47.68 46.69 46.55 46.74 45.21 44.40 44.17 43.92 41.80 40.64 37.33 38.33 38.95 37.65 36.72 37.37 35.93 36.69 37.06 37.77 37.61 37.63 37.47
28.10 28.52 31.48 32.87 34.39 37.79 40.09 43.53 46.32 48.33 49.45 48.09 48.14 48.60 49.30 49.68 49.60 49.33 48.76 47.75 46.90 46.65 45.91 46.00 45.63 45.07 43.03 44.45 45.39 43.61 39.03 37.77 36.49 37.76 35.98 35.94 35.74 35.15 35.01 36.74 37.17 37.43 37.14
27.39 28.34 29.86 31.65 32.79 35.02 37.82 39.71 40.93 42.20 42.35 44.42 46.92 47.10 47.10 48.33 48.29 47.86 47.52 46.69 45.63 45.11 44.56 45.21 46.32 45.74 45.13 43.25 44.64 45.78 44.02 42.50 38.57 34.92 35.76 35.21 35.44 35.52 34.19 35.11 35.56 36.43 36.52
27.72 27.56 28.41 29.70 31.40 32.01 32.80 35.54 37.84 38.31 40.90 42.22 42.41 43.60 45.96 46.26 46.31 47.09 46.76 45.66 44.58 44.21 44.34 45.09 44.69 44.78 44.84 44.75 43.86 42.49 42.58 41.68 40.95 38.19 34.85 32.94 34.00 34.09 34.73 34.43 35.08 34.63 35.60
27.75 27.84 28.65 28.87 30.09 30.86 30.80 30.93 31.97 34.24 36.05 36.94 38.93 39.43 40.15 41.63 43.31 44.56 45.06 44.76 44.33 43.82 43.41 43.67 44.07 44.05 43.87 43.53 43.28 42.60 40.79 39.31 38.77 38.21 35.94 34.38 32.28 32.65 34.95 34.54 34.33 34.28 34.00
MSLP
1014.06 1014.26 1013.85 1013.63 1014.88 1013.82 1012.97 1012.43 1012.42 1012.21 1012.33 1012.25 1012.33 1012.34 1012.39 1012.32 1012.28 1012.37 1012.60 1012.50 1012.57 1012.84 1012.99 1013.19 1013.34 1013.48 1013.44 1013.52 1013.68 1013.76 1013.83 1014.01 1014.10 1014.24 1014.33 1014.48 1014.55 1014.63 1014.67 1014.69 1014.69 1014.65 1014.52
1014.57 1014.49 1014.38 1014.28 1015.20 1014.66 1014.51 1013.39 1012.37 1012.41 1012.10 1012.19 1012.28 1012.20 1012.44 1012.47 1012.39 1012.33 1012.47 1012.47 1012.51 1012.77 1013.07 1013.19 1013.44 1013.68 1013.75 1013.84 1013.90 1014.00 1014.16 1014.33 1014.51 1014.64 1014.72 1014.73 1014.78 1014.96 1015.06 1015.07 1015.05 1015.03 1014.92
1014.54 1014.51 1014.64 1014.25 1013.24 1013.48 1014.34 1014.82 1013.63 1012.45 1012.25 1012.04 1012.19 1012.26 1012.17 1012.40 1012.51 1012.43 1012.46 1012.59 1012.54 1012.78 1013.10 1013.20 1013.35 1013.71 1013.90 1014.06 1014.13 1014.17 1014.34 1014.56 1014.70 1014.89 1014.98 1015.16 1015.19 1015.15 1015.34 1015.45 1015.31 1015.28 1015.23
1015.17 1014.98 1014.92 1015.08 1014.52 1014.19 1014.88 1014.67 1014.26 1013.46 1012.49 1012.15 1012.10 1012.07 1012.22 1012.21 1012.38 1012.43 1012.55 1012.60 1012.65 1012.75 1012.90 1013.33 1013.47 1013.67 1013.96 1014.14 1014.29 1014.33 1014.48 1014.71 1014.92 1015.10 1015.33 1015.45 1015.38 1015.40 1015.53 1015.55 1015.62 1015.65 1015.55
1015.91 1015.38 1015.09 1014.67 1014.78 1014.40 1014.93 1014.84 1014.27 1013.87 1013.14 1013.04 1012.70 1012.45 1012.34 1012.28 1012.31 1012.55 1012.59 1012.72 1012.75 1012.69 1012.91 1013.26 1013.59 1013.73 1014.10 1014.29 1014.42 1014.48 1014.75 1014.95 1015.13 1015.37 1015.63 1015.69 1015.66 1015.67 1015.79 1015.99 1015.99 1015.85 1015.87
1016.55 1016.09 1015.34 1014.71 1014.75 1014.62 1014.26 1014.23 1014.79 1013.94 1013.56 1013.62 1013.67 1013.52 1013.17 1012.81 1012.58 1012.38 1012.46 1012.47 1012.61 1012.79 1012.96 1013.27 1013.69 1013.81 1014.21 1014.37 1014.63 1014.67 1014.91 1015.19 1015.39 1015.69 1015.82 1015.78 1015.85 1015.82 1015.98 1016.14 1016.12 1016.31 1016.28
1017.42 1016.78 1016.13 1015.64 1015.03 1015.20 1014.63 1014.75 1014.18 1014.33 1014.15 1014.12 1014.35 1014.46 1014.11 1013.94 1013.74 1013.47 1012.93 1012.50 1012.55 1012.81 1013.07 1013.34 1013.79 1013.95 1014.33 1014.40 1014.56 1014.78 1015.12 1015.42 1015.65 1015.92 1016.03 1016.06 1016.04 1016.13 1016.26 1016.27 1016.48 1016.59 1016.59
1018.28 1017.58 1016.99 1016.55 1016.26 1015.86 1015.71 1014.91 1013.81 1013.98 1013.63 1013.88 1014.37 1013.51 1014.41 1014.73 1014.60 1014.32 1013.89 1012.88 1012.49 1012.90 1013.22 1013.45 1013.87 1014.27 1014.46 1014.57 1014.83 1015.12 1015.35 1015.57 1015.84 1016.09 1016.25 1016.33 1016.18 1016.33 1016.55 1016.72 1016.90 1016.89 1016.99
1018.84 1018.36 1017.74 1017.18 1016.30 1015.97 1015.53 1015.13 1014.94 1014.63 1013.93 1013.71 1013.03 1013.82 1014.25 1014.80 1014.71 1014.59 1014.24 1013.25 1012.10 1012.75 1013.15 1013.61 1014.11 1014.47 1014.67 1014.94 1015.16 1015.28 1015.62 1015.86 1016.10 1016.30 1016.40 1016.53 1016.39 1016.50 1016.78 1017.04 1017.17 1017.32 1017.42
1019.08 1018.91 1018.66 1018.00 1017.40 1016.57 1015.76 1015.50 1015.40 1015.15 1014.68 1014.28 1013.74 1013.57 1013.83 1014.54 1014.85 1014.49 1014.30 1013.24 1010.69 1012.44 1013.34 1013.79 1014.16 1014.73 1015.01 1015.19 1015.42 1015.60 1015.86 1016.19 1016.51 1016.59 1016.70 1016.56 1016.57 1016.73 1017.00 1017.30 1017.42 1017.63 1017.74
1019.53 1019.55 1019.04 1018.71 1017.83 1017.20 1016.31 1015.68 1015.60 1015.29 1015.21 1014.75 1014.66 1014.63 1015.00 1013.85 1013.57 1014.57 1013.97 1014.15 1013.85 1013.55 1014.07 1014.37 1014.62 1014.98 1015.18 1015.54 1015.70 1015.97 1016.31 1016.61 1016.76 1016.97 1016.97 1016.79 1016.77 1016.99 1017.33 1017.52 1017.77 1017.92 1018.12
1020.36 1020.04 1019.60 1019.08 1018.48 1017.54 1016.79 1016.00 1015.78 1015.48 1015.26 1015.05 1015.04 1015.20 1014.71 1014.63 1014.44 1014.63 1014.04 1013.71 1015.05 1015.71 1015.99 1015.48 1015.53 1015.48 1015.76 1016.15 1016.36 1016.54 1016.86 1017.04 1017.21 1017.33 1017.22 1017.02 1017.05 1017.23 1017.55 1017.75 1017.97 1018.15 1018.34
1021.34 1020.59 1020.11 1019.41 1018.80 1018.21 1017.32 1016.59 1015.84 1015.61 1015.48 1015.07 1015.18 1015.25 1014.89 1015.26 1014.94 1014.16 1015.27 1015.70 1014.58 1016.24 1017.21 1016.94 1016.30 1016.17 1016.28 1016.47 1016.84 1017.14 1017.40 1017.58 1017.74 1017.72 1017.61 1017.26 1017.27 1017.46 1017.69 1017.93 1018.18 1018.33 1018.58
1021.64 1021.00 1020.38 1019.82 1019.04 1018.39 1017.82 1016.96 1015.98 1015.89 1015.68 1015.61 1015.41 1015.41 1015.59 1015.66 1015.90 1015.56 1015.63 1015.73 1016.66 1015.82 1017.97 1017.66 1017.09 1017.19 1017.01 1017.05 1017.17 1017.61 1018.01 1018.18 1018.21 1018.20 1018.09 1017.62 1017.49 1017.56 1017.82 1018.13 1018.42 1018.46 1018.71
1022.21 1021.47 1020.78 1020.00 1019.38 1018.70 1018.01 1017.23 1016.24 1016.05 1016.06 1015.99 1015.76 1015.67 1015.84 1016.15 1016.52 1015.99 1015.90 1016.75 1016.82 1017.14 1017.34 1017.58 1017.69 1017.92 1017.71 1017.81 1017.88 1018.15 1018.48 1018.65 1018.70 1018.71 1018.65 1018.44 1017.96 1017.88 1018.06 1018.34 1018.50 1018.63 1018.91
1022.88 1022.16 1021.16 1020.34 1019.63 1019.14 1018.20 1017.24 1016.52 1016.03 1016.12 1016.14 1016.12 1016.12 1016.13 1016.59 1017.00 1016.63 1016.65 1017.18 1017.27 1017.08 1017.65 1017.44 1018.10 1018.58 1018.28 1018.27 1018.52 1018.77 1019.02 1019.28 1019.30 1019.22 1019.27 1019.41 1019.27 1018.86 1018.90 1019.07 1019.11 1018.94 1019.12
1023.33 1022.62 1021.83 1020.70 1019.99 1019.50 1018.47 1017.64 1016.72 1015.99 1016.11 1016.22 1016.31 1016.34 1016.43 1016.81 1017.14 1017.25 1017.25 1017.18 1017.76 1017.59 1017.79 1018.04 1018.59 1018.77 1018.74 1018.71 1019.13 1019.35 1019.55 1019.78 1019.95 1020.21 1020.09 1020.24 1020.24 1019.84 1019.60 1019.81 1020.03 1019.84 1019.53
1024.02 1023.03 1022.10 1021.23 1020.52 1019.83 1018.86 1018.08 1017.04 1016.34 1015.99 1016.09 1016.28 1016.59 1016.74 1016.71 1017.02 1017.52 1017.96 1018.05 1017.74 1017.73 1018.09 1018.52 1018.56 1018.95 1019.30 1019.39 1019.77 1020.16 1020.51 1020.37 1020.53 1020.86 1020.78 1020.93 1020.99 1020.69 1020.33 1020.46 1020.80 1020.77 1020.38
1024.70 1023.82 1022.81 1021.87 1021.16 1020.34 1019.26 1018.26 1017.49 1017.08 1016.82 1016.35 1016.39 1016.67 1016.89 1017.04 1017.02 1017.55 1018.04 1018.35 1018.19 1018.05 1018.16 1018.42 1018.85 1018.81 1019.50 1019.98 1020.10 1020.71 1021.06 1021.18 1021.16 1021.17 1021.29 1021.24 1021.47 1021.40 1021.37 1021.29 1021.60 1021.45 1021.06
1025.29 1024.54 1023.62 1022.64 1021.80 1020.77 1019.94 1018.78 1017.71 1017.46 1017.39 1017.24 1017.15 1017.08 1017.13 1017.36 1017.36 1017.57 1017.96 1018.28 1018.29 1018.34 1018.41 1018.79 1019.14 1019.20 1019.38 1020.00 1020.64 1021.31 1021.59 1021.85 1021.84 1021.88 1021.88 1021.88 1022.11 1021.95 1022.00 1021.99 1022.32 1022.24 1021.66
1025.62 1024.95 1024.39 1023.53 1022.65 1021.69 1020.80 1019.80 1018.76 1018.27 1018.24 1018.02 1017.88 1017.72 1017.62 1017.43 1017.47 1017.51 1017.66 1017.98 1018.17 1018.26 1018.65 1018.89 1019.32 1019.54 1019.90 1020.30 1020.73 1021.49 1021.78 1021.92 1022.31 1022.35 1022.37 1022.57 1022.72 1022.54 1022.39 1022.46 1022.76 1022.92 1022.78
1026.71 1025.86 1024.92 1024.32 1023.60 1022.76 1021.96 1021.05 1020.09 1019.22 1018.89 1018.66 1018.40 1018.28 1018.11 1017.98 1017.87 1017.80 1017.91 1018.02 1017.99 1018.33 1018.75 1018.58 1019.04 1019.72 1019.83 1020.02 1020.40 1021.00 1021.65 1022.18 1022.48 1022.74 1022.86 1022.77 1023.27 1022.93 1022.79 1022.80 1023.06 1023.20 1023.04
1027.42 1026.97 1026.13 1025.28 1024.43 1023.65 1022.81 1021.87 1020.80 1019.92 1019.39 1019.30 1019.08 1018.85 1018.62 1018.39 1018.42 1018.04 1018.46 1018.13 1018.10 1018.48 1018.85 1018.71 1019.07 1019.44 1019.99 1020.33 1020.37 1020.65 1021.25 1021.55 1022.29 1023.00 1023.03 1023.00 1023.23 1023.31 1023.27 1023.23 1023.25 1023.25 1023.33
1028.15 1027.51 1026.96 1026.18 1025.32 1024.43 1023.71 1022.98 1022.53 1021.98 1021.38 1021.03 1020.17 1019.77 1019.31 1019.00 1018.81 1018.70 1018.46 1018.45 1018.58 1018.73 1018.94 1019.05 1019.20 1019.58 1019.78 1020.17 1020.32 1020.44 1020.45 1020.96 1021.90 1023.05 1023.03 1023.13 1023.23 1023.45 1023.54 1023.34 1023.39 1023.34 1023.43
1028.58 1028.04 1027.40 1026.74 1026.11 1025.49 1024.77 1024.33 1023.72 1023.21 1022.81 1022.06 1021.32 1020.71 1020.19 1019.66 1019.48 1019.27 1018.99 1018.56 1018.53 1019.01 1019.51 1019.78 1019.64 1019.79 1019.89 1020.05 1020.16 1020.39 1020.80 1021.08 1021.57 1022.27 1022.87 1023.25 1023.36 1023.63 1023.64 1023.57 1023.39 1023.44 1023.53
1028.80 1028.51 1028.03 1027.48 1026.89 1026.28 1025.78 1025.27 1024.88 1024.47 1023.89 1023.11 1022.39 1022.01 1021.31 1020.82 1020.37 1020.02 1019.66 1019.21 1019.13 1018.91 1019.64 1020.13 1020.20 1020.03 1020.11 1020.33 1020.41 1020.40 1020.73 1020.93 1021.14 1021.70 1022.41 1023.00 1023.20 1023.58 1023.63 1023.66 1023.58 1023.60 1023.74
Wind_Speed
7 9 15 21 34 13 8 5 3 4 5 5 6 6 8 11 13 12 11 13 13 13 12 11 10 10 11 11 12 12 14 15 16 16 16 15 14 14 15 15 14 8 15
8 5 7 11 19 30 35 17 6 4 7 7 6 6 7 7 10 12 12 11 13 14 13 12 11 10 11 11 12 14 15 15 15 15 13 13 14 14 14 14 13 10 14
11 5 8 13 16 25 28 30 24 9 4 6 8 7 7 7 7 9 10 10 10 12 13 12 12 11 11 12 12 14 15 16 15 14 13 5 6 14 13 12 13 13 13
11 7 5 7 13 9 14 23 29 21 10 2 5 8 8 9 8 9 9 9 10 12 14 12 12 12 11 12 12 11 15 14 13 11 5 5 7 13 12 12 13 12 12
16 13 7 10 8 11 6 13 27 19 16 20 15 5 7 8 8 9 9 10 10 14 14 14 12 12 11 11 13 15 15 14 13 10 6 5 5 10 12 12 11 12 12
14 15 16 13 7 10 9 10 14 12 20 23 26 27 21 11 8 9 10 12 12 12 12 14 12 12 11 11 11 16 16 15 13 7 5 7 6 11 10 12 12 11 12
14 14 16 22 15 8 3 8 16 17 22 25 26 26 28 22 23 22 13 12 11 11 13 14 13 11 10 8 12 17 17 15 7 6 6 5 5 11 11 10 12 12 11
13 15 15 18 16 18 8 10 15 19 21 18 17 21 22 22 25 24 25 18 11 14 14 15 12 12 11 12 18 17 16 12 7 6 6 4 10 10 13 11 10 12 12
12 14 15 14 15 11 15 13 10 12 14 13 15 10 11 14 17 21 20 29 18 19 18 16 11 11 12 14 16 17 14 12 6 4 5 2 8 13 13 10 11 11 13
11 11 13 14 13 13 6 10 10 8 5 6 8 9 10 9 12 14 20 34 25 22 18 16 12 11 12 16 16 15 13 11 6 5 3 2 11 14 12 11 11 12 10
13 11 11 12 13 12 11 3 6 6 7 6 5 1 4 4 9 5 20 27 32 16 15 13 14 13 13 14 15 14 10 4 5 3 1 5 12 14 10 10 11 12 10
16 14 12 11 12 12 9 8 5 4 3 1 2 3 3 2 5 6 10 24 20 26 13 9 11 12 9 4 5 9 4 5 4 3 1 9 13 12 10 11 12 11 9
10 10 12 12 11 10 9 8 3 2 3 3 4 3 4 3 4 5 4 4 8 13 8 6 4 4 5 5 5 5 5 5 3 3 7 5 11 11 11 10 10 11 8
13 13 13 12 11 10 8 6 4 3 3 3 2 4 3 3 3 3 4 7 5 7 3 4 3 4 6 6 7 7 6 4 3 3 8 8 8 11 11 12 10 10 10
13 14 15 13 11 11 11 8 6 3 3 3 2 3 4 3 2 4 6 4 4 4 3 3 4 3 5 6 6 7 6 5 6 4 5 17 5 9 11 10 11 10 9
13 14 14 14 11 11 10 11 8 2 2 2 2 2 5 4 2 4 6 5 3 6 3 4 4 3 5 5 7 7 6 5 6 7 6 7 17 16 17 17 16 10 9
12 12 14 14 12 12 12 10 9 3 3 1 1 3 5 5 3 4 4 6 4 4 5 5 4 3 5 6 7 6 5 6 6 6 5 5 6 12 15 17 16 16 10
11 13 13 12 13 13 12 9 7 7 2 3 2 2 3 5 6 4 2 2 5 5 6 4 5 5 4 5 5 5 4 5 6 6 5 4 4 4 9 16 15 14 15
12 13 14 14 13 14 13 9 6 7 6 2 2 2 3 3 6 5 3 2 2 3 4 4 1 4 6 4 6 5 4 4 5 4 6 6 6 6 5 12 12 13 11
11 12 13 12 15 14 9 9 5 4 5 6 4 2 1 2 4 5 4 5 3 4 4 3 3 3 4 6 7 5 4 3 4 4 5 4 4 5 5 6 5 6 12
12 14 13 14 15 12 10 9 5 5 6 5 5 6 3 1 1 4 4 4 4 5 3 6 3 6 4 5 4 3 3 4 3 4 3 4 4 4 5 5 3 3 4
10 12 13 13 14 11 9 9 4 5 2 3 5 6 5 3 0 0 3 4 4 4 5 5 5 3 2 2 2 2 2 2 2 2 2 3 2 2 4 5 5 4 4
11 12 12 12 13 12 14 9 8 6 3 5 6 6 5 5 4 3 1 2 3 2 3 3 4 4 2 2 2 0 3 2 2 1 0 2 2 2 3 3 4 4 4
8 8 10 11 12 12 14 11 13 8 7 7 5 5 6 7 5 4 1 2 2 1 2 2 4 2 4 3 0 2 3 3 2 2 1 0 0 2 2 2 3 3 3
7 8 8 8 11 12 12 12 9 11 8 6 8 12 11 7 7 6 4 1 4 2 2 1 2 3 2 2 2 2 1 1 1 1 2 2 1 1 1 2 3 3 2
7 8 8 9 9 11 11 12 12 12 10 11 11 9 8 8 9 10 6 3 2 4 3 2 1 2 2 1 1 3 3 3 3 3 2 1 1 2 1 2 3 3 2
Wind_Direction
336 37 33 13 331 295 275 221 180 175 191 171 161 153 155 151 148 153 158 154 153 146 145 139 134 129 124 111 106 102 95 94 86 86 82 75 70 64 61 61 53 48 63
338 59 54 91 20 11 349 316 267 203 188 188 182 170 169 172 169 162 164 166 165 156 150 143 137 125 119 119 112 110 105 98 90 84 78 78 72 65 65 63 67 69 71
347 77 76 71 46 10 338 327 319 278 210 200 193 188 182 188 196 185 173 177 172 167 154 146 141 132 123 124 121 122 113 106 101 91 83 67 72 76 73 71 71 72 73
10 14 5 55 71 76 315 331 329 315 303 253 224 205 201 194 203 204 193 179 182 173 160 150 145 133 129 129 127 130 123 112 99 92 71 71 84 81 78 79 73 66 66
15 2 346 342 94 150 126 1 348 323 347 349 333 265 223 217 204 220 206 194 187 183 166 149 149 131 130 131 126 123 121 110 93 82 82 82 73 87 87 75 72 78 72
15 9 5 350 31 10 23 96 20 358 34 43 33 22 3 325 246 225 215 203 198 196 167 147 140 126 130 133 138 129 118 106 97 89 81 85 83 94 82 90 85 82 80
13 10 11 15 6 356 36 90 92 79 48 54 48 35 28 12 13 360 287 222 197 191 159 140 123 121 127 117 152 131 117 111 101 92 87 85 98 100 94 94 84 87 84
16 6 5 6 16 15 12 114 113 115 109 92 58 23 31 23 8 359 357 284 198 142 143 121 124 129 124 123 127 123 116 108 101 98 91 86 107 103 97 88 91 86 84
22 15 2 359 355 12 9 21 59 98 111 111 106 80 34 23 16 15 349 344 166 143 128 121 116 125 119 128 126 115 108 105 99 98 97 94 113 112 101 103 99 92 83
24 11 4 353 351 344 9 8 7 8 43 112 120 131 143 121 96 50 24 27 141 124 122 120 121 128 119 123 114 104 98 95 96 96 98 104 137 108 98 112 101 93 89
10 5 359 352 344 340 326 320 314 327 341 39 60 106 126 150 105 110 67 39 12 58 101 123 133 115 118 113 107 99 91 81 78 69 44 112 115 105 116 108 105 98 94
356 355 353 347 342 335 336 324 314 324 309 326 285 272 52 351 71 70 74 103 61 5 1 100 112 102 96 88 88 84 77 76 66 47 349 126 114 107 115 113 108 98 79
327 346 348 342 339 334 332 321 313 329 315 337 2 24 58 30 43 63 65 24 95 69 341 346 27 50 82 93 82 76 73 64 54 45 16 122 129 121 123 113 107 107 100
349 344 342 341 337 339 328 317 309 318 329 349 17 65 55 69 52 83 101 82 72 92 294 340 29 49 63 72 85 82 72 67 54 40 26 33 133 124 123 111 109 104 93
350 343 340 337 339 338 332 322 306 293 314 341 5 68 76 74 96 97 81 78 106 90 75 58 31 36 73 74 69 80 71 60 52 39 46 36 35 122 112 116 114 105 94
343 343 335 338 340 337 329 326 308 268 281 340 1 46 89 74 104 106 107 108 104 105 100 77 62 27 67 80 72 67 62 53 52 40 48 30 34 66 71 63 49 76 88
340 336 341 339 341 340 331 328 320 239 179 179 360 79 94 95 98 102 123 123 111 111 120 109 103 73 77 73 69 61 66 59 58 56 48 34 14 37 65 51 33 22 56
341 344 338 340 339 340 334 325 331 338 212 151 131 126 147 132 127 98 94 117 133 137 133 124 123 96 71 78 82 57 49 59 60 49 59 58 34 27 41 55 27 10 15
344 343 343 344 346 340 337 335 337 359 6 3 132 158 182 149 127 127 128 119 120 111 109 121 77 119 121 94 87 63 51 42 50 54 50 49 43 42 35 59 36 7 15
352 350 348 350 350 347 342 337 336 14 14 13 13 354 84 242 158 137 145 155 156 139 122 106 108 59 106 115 97 73 60 45 49 56 55 54 53 61 57 60 38 10 356
4 2 360 354 350 358 353 348 341 2 355 13 15 8 6 190 210 165 165 172 155 144 152 141 120 122 102 130 116 80 52 65 42 53 57 58 50 67 73 69 54 32 358
351 357 3 1 355 359 354 339 321 327 359 2 11 1 7 24 60 100 161 166 169 151 171 139 143 120 111 170 123 132 132 74 34 28 53 80 49 60 71 74 75 55 34
4 354 357 358 1 3 2 356 353 351 358 1 8 9 359 11 2 70 322 156 141 135 179 137 142 135 130 207 34 262 147 148 123 359 100 91 127 64 78 88 79 67 47
349 349 356 357 6 12 10 14 15 4 3 354 353 360 9 5 359 4 298 59 94 81 151 140 142 152 122 187 145 263 58 64 113 263 331 12 77 154 148 119 110 83 56
352 353 352 356 14 10 19 19 21 18 357 2 11 10 7 10 9 349 350 118 81 42 350 269 148 136 124 165 158 103 133 140 204 198 223 226 355 228 160 154 140 104 61
357 0 358 2 12 12 17 20 23 21 360 15 9 2 8 4 2 359 355 10 71 92 358 310 259 152 154 140 221 203 187 175 188 176 165 166 167 222 184 145 131 127 100